Home > Weather > Thusis > Past weeks

Flag for Switzerland Past Weather in Thusis, Graubünden, Switzerland — Yesterday and Last 2 Weeks

Now
73 °F

Mild.


Feels Like: 75 °F
Forecast: 58 / 74 °F
Wind: 2 mph from North

Location: Chur

Current Time: Jun 24, 2016 at 10:33:40 PM

Latest Report: Jun 24, 2016 at 9:00 PM


Visibility: N/A

Pressure: 29.97 "Hg (27.58 "Hg at 718m altitude)

Humidity: 74%

Dew Point: 64 °F

Location of ThusisLocation

Past Weather in Thusis — Graph

°F

Thusis Temperature Yesterday

Maximum temperature yesterday: 88 °F (at 4:00 PM)
Minimum temperature yesterday: 64 °F (at 6:00 AM)
Average temperature yesterday: 75 °F

High & Low Weather Summary for the Past Weeks

 TemperatureHumidityPressure
High88 °F (Jun 23, 4:00 PM)97% (Jun 12, 2:00 AM)30.31 "Hg (Jun 12, 2:00 AM)
Low44 °F (Jun 17, 6:00 AM)33% (Jun 10, 3:00 PM)29.54 "Hg (Jun 14, 1:00 PM)
Average62 °F75%29.93 "Hg
* Reported Jun 9 9:00 PM — Jun 24 9:00 PM, Thusis, Weather by CustomWeather, © 2016

Note: Actual official high and low records may vary slightly from our data, if they occured in-between our weather recording intervals... More about our weather records

Advertising

Thusis Weather History for the Previous 24 Hours

Scroll right to see more
 ConditionsComfort  
Time TempWeatherWind HumidityBarometerVisibility
9:00 PM
Fri, Jun 24
73 °FMild.2 mph74%29.97 "HgN/A
7:00 PM82 °FWarm.5 mph55%29.89 "HgN/A
6:00 PM87 °FWarm.12 mph43%29.87 "HgN/A
5:00 PM87 °FPartly sunny.8 mph45%29.87 "Hg11 mi
4:00 PM88 °FHot.15 mph42%29.87 "HgN/A
3:00 PM88 °FHot.14 mph43%29.88 "HgN/A
2:00 PM87 °FScattered clouds.12 mph45%29.91 "Hg12 mi
1:00 PM86 °FWarm.14 mph46%29.94 "HgN/A
12:00 PM83 °FWarm.6 mph55%29.98 "HgN/A
11:00 AM80 °FHaze.2 mph54%30.02 "Hg9 mi
10:00 AM76 °FMild.1 mph57%30.06 "HgN/A
9:00 AM72 °FMild.1 mph63%30.09 "HgN/A
8:00 AM68 °FPassing clouds.3 mph69%30.11 "Hg11 mi
7:00 AM63 °FMild.1 mph84%30.13 "HgN/A
6:00 AM65 °FMild.1 mph78%30.12 "HgN/A
5:00 AM68 °FClear.3 mph68%30.09 "Hg19 mi
4:00 AM69 °FMild.7 mph66%30.09 "HgN/A
3:00 AM71 °FMild.6 mph62%30.08 "HgN/A
2:00 AM71 °FMild.5 mph63%30.08 "HgN/A
1:00 AM69 °FMild.2 mph72%30.09 "HgN/A
12:00 AM68 °FMild.3 mph74%30.09 "HgN/A
11:00 PM
Thu, Jun 23
71 °FMild.2 mph66%30.08 "HgN/A
10:00 PM72 °FMild.2 mph68%30.06 "HgN/A
Weather by CustomWeather, © 2016

See weather overviewHow to use our weather pages